SCP
-0 -0 0 0 0 0 0 -0 0 0 0 0 0 -0 -0 -0 0 0 0 0 0 0 0 0 0 0 0 0 0 0 0 0 1 1 1 0 0 0 0 0 0 0 0 0 0 0 0 0 0
-0 -0 0 0 0 0 0 0 0 0 0 0 0 -0 -0 -0 0 0 0 0 0 0 0 0 0 0 0 0 0 0 0 0 0 0 0 0 0 0 0 0 0 0 0 0 0 0 0 0 0
0 0 0 0 0 0 0 0 0 0 0 0 0 -0 -0 -0 0 0 0 0 0 0 0 0 0 0 0 0 0 0 0 0 0 0 0 0 0 0 0 0 0 0 0 0 0 0 0 0 0
0 0 0 0 0 0 -0 0 0 0 0 0 0 0 0 0 0 0 0 0 0 0 0 0 0 0 0 0 0 0 0 0 0 0 0 0 0 0 0 0 0 0 0 0 0 0 0 0 0
0 0 0 0 -0 -0 -0 0 0 0 0 0 0 0 0 0 0 1 0 0 0 0 0 0 0 0 0 0 0 0 0 0 0 0 0 0 0 0 0 0 0 0 0 0 0 0 0 0 0
0 0 0 -0 -0 -0 -0 0 0 0 0 0 0 0 0 0 1 1 0 0 0 0 0 0 0 0 0 0 0 0 0 0 0 0 0 0 0 0 0 0 0 0 0 0 0 0 0 0 0
0 0 0 -0 0 -0 -0 0 0 0 0 0 0 0 0 0 1 1 0 0 0 0 0 0 0 0 0 0 0 0 0 0 0 0 0 0 0 0 0 0 0 0 0 0 0 0 0 0 0
0 -0 0 -0 0 0 0 0 0 0 0 0 0 0 0 0 0 0 0 0 0 0 0 0 0 0 0 0 0 0 0 0 0 0 0 0 0 0 0 0 0 0 0 0 0 0 0 0 0
0 -0 0 0 0 0 0 0 0 0 0 0 0 0 0 0 0 0 0 0 0 0 0 0 0 0 0 0 0 0 0 0 0 0 0 0 0 0 0 0 0 0 0 0 0 0 0 0 0
0 -0 0 0 0 0 0 0 0 0 0 0 0 0 0 0 0 0 0 0 0 0 0 0 0 0 0 0 0 0 0 0 0 0 0 0 0 0 0 0 0 0 0 0 0 0 0 0 0
0 0 0 0 0 0 0 0 0 0 0 0 0 1 1 1 0 0 0 0 0 0 0 0 0 0 0 0 0 0 0 0 0 0 0 0 0 0 0 0 0 0 0 0 0 0 0 0 0
0 0 0 0 0 0 0 0 0 0 0 0 0 1 1 1 0 0 0 0 0 0 0 0 0 0 0 0 0 0 0 0 0 0 0 0 -0 0 0 0 0 0 0 0 0 0 0 0 0
0 0 0 0 0 0 0 0 0 0 0 0 1 1 1 1 1 0 0 0 0 0 0 0 0 0 0 0 0 0 0 0 0 0 0 0 0 0 0 0 0 0 0 0 0 0 0 0 0
0 0 0 0 0 0 0 0 0 0 0 0 1 1 1 1 1 1 0 0 0 0 0 0 0 0 0 0 0 0 0 0 0 0 0 0 0 0 0 0 0 0 0 0 0 0 0 0 0
0 0 0 0 0 0 0 0 0 0 0 0 1 1 1 1 1 1 0 0 0 0 0 0 0 0 0 0 0 0 0 0 0 0 0 0 0 0 0 0 0 0 0 0 0 0 0 0 0
0 0 0 0 0 0 0 0 0 0 0 1 1 1 1 1 1 1 1 0 0 0 0 0 0 0 0 0 1 1 1 1 0 0 0 0 0 0 0 0 0 0 0 0 0 0 0 0 0
0 0 0 0 0 0 0 0 0 0 0 1 1 1 1 1 1 1 1 0 0 0 0 0 0 0 1 1 1 1 1 1 1 0 0 0 0 0 0 0 0 0 0 0 0 0 0 0 0
0 0 0 0 0 0 0 0 0 0 0 1 1 1 1 2 2 2 1 0 0 0 0 0 0 1 1 1 1 1 1 0 0 0 0 0 0 0 0 0 0 0 0 0 0 0 0 0 0
0 0 0 0 0 0 0 0 0 0 0 1 1 1 2 2 2 2 1 1 1 1 1 1 1 1 1 1 1 1 0 0 0 0 0 0 0 0 0 0 0 0 0 0 0 0 0 0 0
0 0 0 0 0 0 0 0 0 0 0 0 1 1 2 2 2 2 1 1 1 1 1 1 1 1 1 1 1 0 0 0 0 0 0 0 0 0 0 0 0 0 0 0 0 0 0 0 0
0 0 0 0 0 0 0 0 0 0 0 0 1 1 2 2 2 2 1 1 1 1 1 2 2 1 1 1 0 0 0 0 0 0 0 0 0 0 0 0 0 0 0 0 0 0 0 0 0
0 0 0 0 0 0 0 0 0 0 0 0 0 1 1 2 2 2 1 1 1 1 1 1 1 1 1 0 0 0 0 0 0 0 0 0 0 0 0 0 0 0 0 0 0 0 0 0 0
0 0 0 0 0 0 0 0 0 0 0 0 0 1 1 2 2 2 1 1 1 1 1 1 1 1 0 0 0 0 0 0 0 0 0 0 0 0 0 0 0 0 0 0 0 0 0 0 0
0 0 0 0 0 0 0 0 0 0 0 0 0 1 1 2 2 2 1 1 1 0 0 0 0 0 0 0 0 0 0 0 0 0 0 0 0 0 0 0 0 0 0 0 0 0 0 0 0
0 0 0 0 0 0 0 0 0 0 0 0 0 1 2 2 1 1 0 0 0 0 0 0 0 0 0 0 0 0 0 0 0 0 0 0 0 0 0 0 0 0 0 0 0 0 0 0 0
0 0 0 0 0 0 0 0 0 0 0 0 1 1 1 1 1 0 0 0 0 0 0 0 0 0 0 0 0 0 0 0 0 0 0 0 0 0 0 0 0 0 0 0 0 0 0 0 0
0 0 0 0 0 0 0 0 0 0 0 0 1 1 1 1 0 0 0 0 0 0 0 0 0 0 0 0 0 0 0 0 0 0 0 0 0 0 0 0 0 0 0 0 0 0 0 0 0
0 0 0 0 0 0 0 0 0 0 0 0 1 1 1 0 0 0 0 0 0 0 0 0 0 0 0 0 0 0 0 0 0 0 0 0 0 0 0 0 0 0 0 0 0 0 0 0 0
0 0 0 0 0 0 0 0 0 0 0 0 1 1 1 0 0 0 0 0 0 0 0 0 0 0 0 0 0 0 0 0 0 0 0 0 0 0 0 0 0 0 0 0 0 0 0 0 0
0 0 0 0 0 0 0 0 0 0 0 0 0 1 1 0 0 0 0 0 0 0 0 0 0 0 0 0 0 0 0 0 0 0 0 0 0 0 0 0 0 0 0 0 0 0 0 0 0
Wind_Speed
10 7 6 6 9 9 6 3 2 6 7 7 7 6 5 6 6 6 7 8 6 9 12 14 12 12 11 11 11 12 13 13 12 12 11 10 9 8 7 7 6 5 4 4 3 3 4 6 7
8 6 6 7 9 8 5 5 6 7 10 10 8 5 4 5 4 8 10 9 10 10 10 11 14 12 13 12 12 12 13 13 12 12 10 9 8 7 5 5 4 2 2 2 3 4 5 6 7
6 7 6 6 8 4 5 6 8 10 10 7 7 5 3 4 5 8 9 12 12 10 9 11 14 13 13 13 12 12 11 11 11 10 9 8 7 5 4 2 1 1 3 4 4 4 4 5 6
6 7 6 9 9 1 2 5 9 12 10 8 9 7 5 4 4 7 11 12 12 10 10 12 12 13 13 12 12 11 10 9 9 9 8 7 6 4 3 2 2 3 4 5 4 5 6 7 6
7 6 9 10 7 0 2 4 11 13 12 10 8 8 8 3 3 9 11 10 9 9 9 12 10 12 12 12 12 11 10 9 8 8 8 7 6 4 3 3 5 6 6 7 8 8 8 6 5
7 7 10 8 4 2 5 8 12 12 12 11 9 8 7 6 7 11 12 10 9 9 9 12 11 12 12 11 10 9 9 8 8 8 8 8 7 6 4 4 5 6 8 8 8 7 6 4 3
10 8 10 4 3 4 4 9 12 11 12 12 9 8 7 9 9 11 11 10 8 9 9 11 12 12 11 10 10 9 8 7 6 7 8 8 7 5 5 6 6 7 8 8 7 5 4 3 3
7 7 9 5 5 5 6 9 10 11 9 9 8 7 6 12 12 12 11 9 7 8 8 8 8 10 11 11 11 10 9 8 7 8 8 7 6 6 6 7 6 6 7 7 6 5 4 3 3
7 9 8 4 2 4 6 9 10 10 10 10 9 5 4 15 15 13 12 10 8 7 7 8 9 9 10 11 12 11 10 8 8 8 7 6 5 5 7 6 6 4 6 7 6 4 2 2 6
8 11 4 1 3 3 2 9 13 12 14 12 10 6 10 16 16 15 14 12 11 9 8 10 9 9 9 8 8 7 7 7 6 5 6 4 2 0 2 9 6 6 5 6 5 3 6 8 4
9 9 1 4 5 7 4 9 14 13 13 14 15 15 16 18 16 15 13 11 11 9 7 8 8 7 7 6 5 4 4 5 5 5 4 2 3 3 3 3 7 6 6 5 6 7 3 2 2
10 9 7 7 7 8 5 7 13 13 11 11 14 17 21 20 18 16 14 13 11 8 7 6 9 8 6 6 5 5 4 4 4 5 4 4 2 3 2 2 1 2 3 1 3 2 3 4 5
14 10 8 10 11 9 7 7 8 11 6 5 14 19 21 20 17 14 12 11 10 8 6 6 6 8 7 5 4 4 4 4 4 4 4 3 3 2 2 2 1 4 2 3 3 5 4 5 6
8 8 10 12 10 5 7 6 9 6 5 10 16 19 20 19 17 14 11 9 7 6 5 6 7 8 8 7 5 5 5 3 4 4 3 2 1 1 3 3 2 3 4 5 6 6 5 6 6
7 10 13 12 10 5 7 9 9 6 8 12 15 16 17 17 15 12 10 7 6 5 5 6 7 8 8 8 7 5 4 4 2 3 2 1 2 1 2 2 1 2 3 3 4 5 5 5 6
10 12 15 11 7 6 10 14 8 6 10 13 13 13 14 15 14 10 10 6 4 5 6 6 6 8 8 5 5 4 3 3 3 3 4 5 5 3 2 2 3 4 3 4 4 5 6 5 7
14 15 17 11 4 5 10 10 7 7 10 11 11 12 13 13 13 11 10 8 6 6 5 5 6 7 7 7 6 6 6 5 5 5 6 7 7 6 4 5 5 4 4 5 5 5 6 6 7
13 14 14 14 5 6 9 8 4 7 9 10 11 12 13 14 13 11 9 8 7 6 6 6 8 8 9 7 7 7 8 7 7 7 8 8 7 8 5 5 6 6 5 5 5 4 4 5 5
9 11 13 12 6 10 11 10 6 7 10 12 12 13 13 14 13 11 10 9 8 8 8 8 9 9 7 6 7 7 7 7 7 8 9 9 8 8 7 5 5 5 4 4 4 5 6 6 5
14 15 15 13 6 8 10 13 10 9 13 12 13 14 14 14 13 11 10 9 9 9 10 11 11 9 8 7 6 6 8 7 8 7 8 8 7 7 5 6 4 4 3 3 4 4 6 7 5
15 15 15 14 11 10 12 17 16 11 12 12 14 15 17 17 16 14 12 11 11 11 11 10 12 11 10 10 9 9 8 7 6 6 5 5 5 5 5 5 5 4 5 4 5 6 6 7 8
16 14 14 15 15 14 11 13 13 12 13 15 16 17 19 18 17 16 15 14 13 13 13 13 13 13 12 10 9 9 6 5 5 3 4 4 4 5 5 5 5 5 5 4 4 5 6 5 7
14 10 11 14 15 16 13 13 14 10 13 16 18 18 18 18 18 17 17 16 15 14 13 14 14 14 12 11 10 9 7 6 5 3 4 1 3 3 4 4 4 4 3 4 4 4 5 5 6
11 9 10 12 14 17 16 15 14 10 12 13 15 17 16 16 16 16 16 16 15 13 13 14 14 14 12 11 10 9 8 6 4 2 2 2 2 2 5 4 4 4 4 3 3 4 5 4 5
11 12 10 12 14 16 15 13 13 9 9 9 8 15 15 15 16 16 17 16 15 14 13 12 13 13 12 12 10 9 7 5 5 3 3 3 2 2 3 4 3 4 4 4 4 4 5 5 5
15 16 13 12 12 11 9 11 10 4 2 4 6 14 16 17 16 17 17 16 15 14 13 11 12 12 12 11 10 9 6 4 5 4 3 2 3 3 3 3 4 4 5 5 5 6 6 5 7
16 16 18 17 17 15 12 11 8 7 6 6 12 16 17 16 16 16 16 15 14 13 12 11 12 12 11 11 10 8 6 5 5 2 1 1 2 3 4 5 6 6 6 7 7 7 8 8 9
18 14 10 13 16 17 16 16 12 6 5 8 15 17 16 15 16 16 15 14 12 11 11 12 12 11 11 10 8 6 5 4 2 1 3 4 4 4 6 6 7 8 8 9 9 10 9 10 11
16 16 13 13 14 15 15 12 3 0 3 7 13 15 16 16 17 16 15 14 12 12 12 12 11 11 10 9 7 5 4 3 1 2 3 3 4 5 7 7 8 9 9 10 10 12 13 14 14
12 14 15 14 14 13 14 10 6 3 6 9 12 14 16 15 16 16 15 14 13 12 12 11 10 10 9 7 5 4 3 1 2 2 3 4 6 7 8 9 10 11 12 12 13 14 15 16 16
Wind_Direction
195 210 241 246 242 235 235 150 196 157 118 85 78 62 45 30 6 58 117 144 153 148 140 150 153 150 150 146 139 135 132 129 125 120 118 118 120 124 131 139 148 152 149 142 132 112 92 85 80
185 206 233 241 252 230 164 149 166 117 101 115 106 97 92 85 72 115 139 146 160 153 151 150 149 155 157 158 155 153 147 140 132 125 122 122 122 126 133 144 155 160 148 119 97 88 85 82 70
194 231 253 248 247 265 99 143 140 112 130 138 121 102 74 85 123 132 126 145 153 150 148 136 157 163 164 164 164 159 151 143 135 130 129 130 131 130 130 131 122 92 81 75 67 68 82 84 77
209 216 236 250 243 264 11 121 137 138 145 144 137 130 116 78 141 133 142 152 150 147 156 144 165 165 166 166 164 155 151 149 145 144 143 142 140 138 134 123 108 97 92 88 81 84 93 91 82
235 243 238 241 243 133 175 143 155 153 147 150 157 151 138 113 143 145 154 154 151 151 154 143 159 162 163 164 165 157 151 152 155 158 155 152 151 147 126 101 98 93 92 96 94 91 92 90 80
224 237 243 227 169 174 178 177 171 153 152 157 170 156 129 137 172 167 158 164 156 152 152 137 146 157 155 156 153 142 142 151 160 163 157 152 150 146 133 120 115 111 111 107 102 98 98 97 82
248 246 257 258 185 150 121 178 183 167 165 164 169 164 145 169 184 173 164 168 159 155 148 146 144 147 147 136 129 132 142 145 147 147 144 143 144 147 146 142 133 125 122 117 107 96 83 63 46
261 263 246 217 196 126 128 168 189 190 169 146 174 194 167 177 182 177 175 169 155 142 137 136 132 131 141 144 140 140 134 131 130 132 134 139 154 162 163 170 123 119 127 124 108 91 75 71 73
246 249 230 169 195 115 151 163 162 175 159 173 201 222 116 156 175 182 179 171 155 146 147 144 150 156 155 149 146 151 140 130 145 148 145 192 199 171 175 97 91 105 119 115 106 98 99 205 163
232 247 201 60 315 328 186 176 154 171 175 188 197 174 139 158 179 189 188 178 168 157 168 165 167 170 167 148 152 158 163 155 183 153 165 188 128 149 77 109 103 106 122 140 130 156 208 239 203
228 253 303 272 303 299 248 183 170 178 189 198 198 178 163 171 186 195 191 179 169 159 180 178 172 185 161 156 161 158 158 154 167 152 160 158 187 182 192 169 161 162 183 192 162 209 223 265 338
239 250 266 286 307 293 286 189 188 201 220 205 196 174 170 179 190 193 187 172 163 159 165 175 171 176 179 161 154 168 168 165 160 145 183 179 195 213 171 199 147 195 187 193 265 255 230 262 264
237 249 256 266 278 286 266 209 206 216 238 186 175 173 179 184 190 188 181 166 165 163 159 162 180 158 164 162 170 163 154 160 149 169 172 212 215 211 182 180 257 282 291 252 268 294 295 283 265
245 253 262 267 269 248 227 183 205 197 190 177 178 182 184 185 188 179 167 163 156 155 164 160 172 168 171 174 170 158 158 160 163 174 165 213 253 251 272 271 285 297 311 336 328 321 309 290 303
259 259 254 243 246 226 217 196 206 156 184 189 191 190 186 185 186 178 160 158 148 145 140 162 167 168 178 175 168 165 157 167 160 118 99 23 345 12 278 277 290 4 353 348 317 318 301 296 298
236 242 244 217 224 211 233 226 156 163 190 198 198 191 189 185 184 157 116 115 122 120 122 152 163 162 168 159 151 137 122 108 89 84 76 55 45 32 341 11 37 13 356 351 346 329 321 324 313
224 236 238 212 182 226 241 241 139 179 201 207 200 191 188 183 186 147 127 132 124 107 102 119 140 156 146 127 123 106 94 85 85 77 74 70 60 51 44 42 37 12 16 10 353 7 339 325 321
234 240 236 238 182 263 246 240 201 203 217 216 204 194 185 186 189 151 138 136 131 120 110 114 127 128 129 125 115 105 94 90 82 76 72 73 70 58 52 64 40 23 28 21 16 352 338 320 314
268 259 253 247 258 266 255 247 235 229 227 224 210 196 192 189 185 155 155 154 142 130 124 120 115 125 134 133 133 121 109 101 90 79 72 70 66 63 47 49 49 25 35 13 350 329 305 287 306
239 244 249 250 240 267 260 256 247 235 234 231 219 203 200 191 175 165 166 161 149 134 129 129 127 133 139 122 107 103 102 91 83 81 75 72 67 54 52 31 12 16 337 316 328 321 310 306 303
235 246 254 257 251 245 261 258 242 219 233 232 228 217 202 196 184 174 166 161 153 140 134 127 122 122 115 119 116 118 115 119 113 107 95 80 73 61 40 22 360 343 313 348 340 331 327 322 308
243 239 253 260 258 254 239 266 244 213 219 225 226 221 209 194 188 176 167 160 152 141 136 131 125 119 120 129 132 136 132 122 119 134 118 110 61 32 29 23 21 356 352 11 335 24 327 324 319
248 257 247 250 254 261 249 255 263 224 234 229 220 216 208 193 183 175 168 157 149 144 139 133 126 121 119 117 124 129 121 121 128 129 112 346 67 40 33 30 21 1 356 17 358 353 338 329 333
237 238 242 247 249 246 246 251 258 231 238 247 215 202 199 184 170 164 157 148 144 141 137 133 127 126 127 126 121 112 109 108 102 66 20 329 17 33 42 19 12 346 356 352 333 327 327 343 336
219 228 231 227 224 241 237 243 258 258 260 273 217 183 175 164 157 156 153 148 144 142 140 136 136 134 128 118 109 102 96 93 81 33 52 334 343 11 50 4 344 338 335 313 311 304 325 316 312
216 230 248 262 258 252 204 234 258 240 314 296 196 165 161 161 159 158 155 150 147 145 146 145 142 132 122 112 101 88 75 56 68 64 8 3 339 5 13 316 321 319 312 305 305 298 292 293 291
239 236 248 258 266 274 266 256 251 229 227 215 169 160 168 162 159 158 156 149 144 148 150 143 132 123 112 101 92 85 72 60 70 101 248 321 346 338 328 304 298 298 297 300 296 286 288 282 280
249 248 246 245 254 259 257 253 250 226 216 197 175 171 168 160 161 158 152 143 143 144 134 131 127 112 99 90 81 78 76 74 77 318 15 355 341 347 322 312 300 290 286 286 287 286 281 282 280
225 234 237 248 252 261 265 265 18 147 269 224 186 175 166 166 165 158 149 144 145 141 139 134 122 111 102 92 90 85 70 58 312 301 323 317 312 310 302 305 301 294 289 286 284 283 288 284 283
260 239 236 247 255 256 270 279 86 321 270 228 190 172 162 167 164 155 149 149 151 147 140 129 118 109 103 104 107 88 63 13 289 293 309 298 291 293 297 295 292 290 289 289 287 288 289 289 288